Date String (YYYY-MM-DD hh:mm:ss) UTC,Instrument flags,Ambient pressure (hPa),Sample flow (lpm),Bypass flow (lpm),Sample temperature (°C),Ambient temperature (°C),ASC tube jacket temperature (°C),LED temperature (°C),Box temperature (°C),Sample RH (%),Span deviation,Mass concentration (μg/m³),Mass concentration (μg/m³),Mass concentration (μg/m³)
DateTimeUTC,F1_M11,P_M11,Q1_M11,Q2_M11,T1_M11,T2_M11,T3_M11,T4_M11,T5_M11,U1_M11,ZSPAN_M11,X0_M11,X2_M11,X1_M11
2023-02-21 17:00:00,,0805.5,5.01,0.00,22.0,20.5,00.0,30.9,23.7,12.6,0000.0,0004.06,0000.71,0000.40
2023-02-21 17:01:00,,0805.3,5.00,0.00,22.0,20.5,00.0,30.9,23.7,12.6,0000.0,0003.55,0000.71,0000.39
2023-02-21 17:02:00,,0805.3,5.01,0.00,22.0,20.5,00.0,30.9,23.7,12.6,0000.0,0003.19,0000.72,0000.39
2023-02-21 17:03:00,,0805.2,5.01,0.00,22.0,20.5,00.0,30.8,23.7,12.5,0000.0,0003.29,0000.74,0000.38
2023-02-21 17:04:00,,0804.9,5.00,0.00,22.0,20.5,00.0,30.8,23.7,12.6,0000.0,0003.32,0000.77,0000.39
2023-02-21 17:05:00,,0804.7,5.01,0.00,21.9,20.4,00.0,30.8,23.7,12.9,0000.0,0003.43,0000.81,0000.40
2023-02-21 17:06:00,,0804.8,5.00,0.00,21.9,20.4,00.0,30.8,23.6,12.9,0000.0,0003.58,0000.87,0000.41
2023-02-21 17:07:00,,0805.1,4.99,0.00,21.9,20.3,00.0,30.8,23.6,12.6,0000.0,0003.83,0000.97,0000.42
2023-02-21 17:08:00,,0805.2,4.98,0.00,21.9,20.3,00.0,30.8,23.6,12.8,0000.0,0003.73,0000.97,0000.41
2023-02-21 17:09:00,,0805.2,5.01,0.00,21.9,20.3,00.0,30.8,23.6,13.0,0000.0,0003.69,0000.97,0000.41
2023-02-21 17:10:00,,0805.2,5.01,0.00,21.9,20.3,00.0,30.8,23.6,13.0,0000.0,0003.83,0001.02,0000.42
2023-02-21 17:11:00,,0805.2,5.01,0.00,21.9,20.3,00.0,30.8,23.6,13.0,0000.0,0002.55,0001.07,0000.42
2023-02-21 17:12:00,,0805.4,4.99,0.00,21.9,20.3,00.0,30.7,23.6,13.0,0000.0,0002.36,0001.06,0000.43
2023-02-21 17:13:00,,0805.4,4.98,0.00,21.9,20.3,00.0,30.7,23.6,13.1,0000.0,0002.40,0001.07,0000.43
2023-02-21 17:14:00,,0805.5,5.00,0.00,21.9,20.4,00.0,30.7,23.6,12.9,0000.0,0002.29,0001.04,0000.45
2023-02-21 17:15:00,,0805.4,5.01,0.00,21.9,21.5,00.0,30.7,23.9,12.7,0000.0,0002.36,0001.04,0000.45
2023-02-21 17:16:00,,0805.3,4.97,0.00,22.1,22.8,00.0,30.7,24.2,12.9,0000.0,0002.42,0001.03,0000.44
2023-02-21 17:17:00,,0805.3,4.98,0.00,22.2,22.8,00.0,30.8,24.3,12.8,0000.0,0002.94,0001.03,0000.44
2023-02-21 17:18:00,,0805.2,4.99,0.00,22.2,22.3,00.0,30.8,24.2,12.6,0000.0,0004.74,0001.15,0000.46
2023-02-21 17:19:00,,0805.2,5.01,0.00,22.2,22.0,00.0,30.9,24.2,12.7,0000.0,0004.83,0001.19,0000.46
2023-02-21 17:20:00,,0805.2,5.00,0.00,22.3,21.8,00.0,30.9,24.1,12.6,0000.0,0004.89,0001.19,0000.46
2023-02-21 17:21:00,,0805.1,4.99,0.00,22.3,21.5,00.0,31.0,24.1,12.6,0000.0,0004.80,0001.16,0000.46
2023-02-21 17:22:00,,0805.2,4.98,0.00,22.3,21.4,00.0,31.0,24.1,12.2,0000.0,0004.85,0001.15,0000.46
2023-02-21 17:23:00,,0805.3,4.98,0.00,22.3,21.3,00.0,31.0,24.1,12.5,0000.0,0004.95,0001.20,0000.46
2023-02-21 17:24:00,,0805.2,5.01,0.00,22.3,21.2,00.0,31.0,24.1,12.9,0000.0,0004.91,0001.19,0000.46
2023-02-21 17:25:00,,0805.3,5.00,0.00,22.3,21.1,00.0,31.0,24.1,13.0,0000.0,0005.02,0001.24,0000.45
2023-02-21 17:26:00,,0805.4,5.01,0.00,22.3,21.0,00.0,31.0,24.1,13.0,0000.0,0004.90,0001.24,0000.45
2023-02-21 17:27:00,,0805.3,5.00,0.00,22.3,21.0,00.0,31.1,24.1,13.0,0000.0,0004.83,0001.26,0000.46
2023-02-21 17:28:00,,0805.3,4.99,0.00,22.3,21.0,00.0,31.1,24.0,13.0,0000.0,0004.04,0001.21,0000.46
2023-02-21 17:29:00,,0805.1,4.99,0.00,22.3,20.9,00.0,31.1,24.0,13.2,0000.0,0002.18,0001.03,0000.44
2023-02-21 17:30:00,,0805.0,4.99,0.00,22.2,20.9,00.0,31.1,24.0,13.0,0000.0,0002.24,0001.02,0000.44
2023-02-21 17:31:00,,0805.0,5.01,0.00,22.2,20.9,00.0,31.1,24.0,12.9,0000.0,0002.73,0001.05,0000.44
2023-02-21 17:32:00,,0805.0,5.01,0.00,22.2,20.8,00.0,31.1,24.0,12.9,0000.0,0003.37,0001.09,0000.44
2023-02-21 17:33:00,,0805.0,5.00,0.00,22.2,20.8,00.0,31.1,24.0,12.9,0000.0,0004.43,0001.09,0000.45
2023-02-21 17:34:00,,0805.2,5.01,0.00,22.2,20.8,00.0,31.1,24.0,12.6,0000.0,0004.84,0001.07,0000.44
2023-02-21 17:35:00,,0805.0,5.01,0.00,22.2,20.8,00.0,31.1,24.0,12.7,0000.0,0005.82,0001.20,0000.45
2023-02-21 17:36:00,,0805.0,5.00,0.00,22.2,20.8,00.0,31.1,24.0,12.4,0000.0,0009.57,0001.93,0000.51
2023-02-21 17:37:00,,0805.0,4.99,0.00,22.2,20.8,00.0,31.0,24.0,12.4,0000.0,0010.63,0002.19,0000.54
2023-02-21 17:38:00,,0805.0,5.00,0.00,22.2,20.8,00.0,31.0,23.9,12.6,0000.0,0011.80,0002.49,0000.56
2023-02-21 17:39:00,,0804.8,5.01,0.00,22.2,20.8,00.0,31.0,23.9,12.8,0000.0,0012.69,0002.79,0000.58
2023-02-21 17:40:00,,0805.0,5.01,0.00,22.2,20.7,00.0,31.0,23.9,12.6,0000.0,0017.38,0003.58,0000.69
2023-02-21 17:41:00,,0805.2,5.00,0.00,22.2,20.7,00.0,31.0,23.9,12.6,0000.0,0017.72,0003.63,0000.70
2023-02-21 17:42:00,,0805.2,5.00,0.00,22.2,20.7,00.0,31.0,23.9,12.7,0000.0,0017.44,0003.62,0000.71
2023-02-21 17:43:00,,0805.0,5.00,0.00,22.2,20.8,00.0,31.0,24.0,12.9,0000.0,0017.04,0003.61,0000.71
2023-02-21 17:44:00,,0804.7,5.00,0.00,22.2,20.8,00.0,31.0,24.0,12.9,0000.0,0016.67,0003.65,0000.71
2023-02-21 17:45:00,,0804.6,5.01,0.00,22.2,20.7,00.0,31.0,23.9,12.8,0000.0,0016.84,0003.72,0000.72
2023-02-21 17:46:00,,0804.6,5.01,0.00,22.2,20.7,00.0,31.0,23.9,12.6,0000.0,0016.25,0003.67,0000.72
2023-02-21 17:47:00,,0804.6,4.99,0.00,22.2,20.7,00.0,31.0,23.9,12.7,0000.0,0013.47,0003.28,0000.65
2023-02-21 17:48:00,,0804.7,5.00,0.00,22.1,20.7,00.0,31.0,23.9,12.7,0000.0,0012.46,0003.16,0000.64
2023-02-21 17:49:00,,0804.7,5.01,0.00,22.1,20.7,00.0,31.0,23.9,12.6,0000.0,0011.46,0002.94,0000.61
2023-02-21 17:50:00,,0804.6,5.00,0.00,22.2,20.8,00.0,31.0,23.9,12.6,0000.0,0010.44,0002.63,0000.59
2023-02-21 17:51:00,,0804.2,5.01,0.00,22.2,20.8,00.0,31.0,23.9,12.8,0000.0,0004.76,0001.52,0000.48
2023-02-21 17:52:00,,0804.4,5.00,0.00,22.1,20.7,00.0,31.0,23.9,12.8,0000.0,0005.74,0001.83,0000.50
2023-02-21 17:53:00,,0804.5,5.00,0.00,22.1,20.7,00.0,31.0,23.9,12.6,0000.0,0006.43,0001.99,0000.51
2023-02-21 17:54:00,,0804.4,4.99,0.00,22.1,20.7,00.0,31.0,23.9,12.7,0000.0,0007.42,0002.01,0000.51
2023-02-21 17:55:00,,0804.7,4.99,0.00,22.1,20.7,00.0,31.0,23.9,13.0,0000.0,0007.59,0001.99,0000.51
2023-02-21 17:56:00,,0805.1,5.00,0.00,22.1,20.8,00.0,31.0,23.9,13.5,0000.0,0007.39,0001.93,0000.50
2023-02-21 17:57:00,,0805.2,5.00,0.00,22.1,20.8,00.0,31.0,23.9,14.6,0000.0,0007.19,0001.91,0000.56
2023-02-21 17:58:00,,0805.3,5.02,0.00,22.1,20.9,00.0,31.0,23.9,14.8,0000.0,0007.20,0001.91,0000.64
2023-02-21 17:59:00,,0805.2,4.97,0.00,22.2,20.9,00.0,31.0,24.0,14.8,0000.0,0008.09,0001.94,0000.69
